Showing default

HYPERFIELD-1A, 60562

Orbit data source: Space-Track

HYPERFIELD-1A, 60562 is a payload satellite owned by Kuva Space (FI) in SSO that was launched on Fri, 16 Aug 2024 UTC via an FALCON 9 launch vehicle from the Air Force Western Test Range (AFWTR). Payload-class satellites include a variety of spacecraft equipped with specific instruments for various scientific and technological missions. These include communications satellites like Starlink; space stations such as the ISS; scientific satellites like the Hubble; Earth observation satellites from companies like Planet Labs, Umbra, and HawkEye 360; GPS; miniature CubeSats for education and research; and military/defense satellites.

Loading next visibility...
Identifier
60562, 2024-149CY
Orbit
SSO
Country
Flag of FIFI / FIN
Related business
Manufacturer
Kuva Space
Mission
Operational Commercial Imaging
Bus & Motor
CUBESAT 6U, Unknown motor
Mass
12 kg wet, 12 kg dry
Launch date (UTC)
2024-08-16 (2 years ago)
Launch vehicle
FALCON 9
Launch site
Air Force Western Test Range (AFWTR)
Object type
Payload
Rocket body
Debris
Shape & HBR
Box + 2 Pan, 0.2 m
Radar Cross Section
0.092 m², Medium (>0.1 m² and < 1m²)

Expand to show TLE details & history
Last TLE update: 3 days ago

TLE from 3 days ago
0 HYPERFIELD-1A
1 60562U 24149CY  26171.94082776  .00005126  00000-0  17338-3 0  9998
2 60562  97.3795 252.0842 0003620 304.5820  55.5080 15.31061163102617
Epoch: 2026-06-20T22:34Z
TLE epoch observation values (Epoch: 2026-06-20T22:34:47.518Z)
Latitude
0.00004°
Longitude
4.23797°
Altitude
474.347 km
Speed
7.629 km/s
True Right ascension
16h 48m 20s
True Declination
0° 00' 00"
Sunlit
Object was in full shadow at epoch
Visualization orbit readout
Latitude
Unknown
Longitude
Unknown
Altitude
Unknown
Speed
Unknown
Apparent Right ascension
Unknown
Apparent Declination
Unknown
Sunlit
N/A
Visualization observer readout
Local Sidereal Time
12:19:36
Azimuth
Unknown
Elevation
Unknown
Doppler factor
Unknown
Orbital elements
Apogee altitude
472.074 km
Perigee altitude
467.116 km
Semi-major axis
6,847.732 km
Eccentricity
0.00036
Inclination
97.3795°
RAAN
252.0842°
Arg. of periapsis
304.582°
True anomaly
55.5422°
Mean anomaly
55.508°
Eccentric anomaly
55.5251°
Mean motion
3.83021 °/min
Orbital period
93.99 mins
BSTAR
0.00017338
Loading maneuver chart data...
Computing Atmospheric mass density...
Loading historical data...
Loading historical data...
Loading historical data...
Loading historical data...
Loading historical data...
Loading historical data...
Loading historical data...

Documentation

Showing up to 5 results
|